Miscellaneous Local Product
Issued by NWS North Platte, NE

Home | Current Version | Previous Version | Text Only | Print | Product List | Glossary On
Versions: 1 2 3 4 5 6 7 8 9 10 11 12 13 14 15 16 17 18 19 20 21 22 23 24 25 26 27 28 29 30 31 32 33 34 35 36 37 38 39 40 41 42 43 44 45 46 47 48 49 50
000
AXUS43 KLBF 232310
MISLBF


WESTERN AND NORTH CENTRAL NEBRASKA HOURLY WEATHER ROUNDUP
NATIONAL WEATHER SERVICE NORTH PLATTE NE
600 PM CDT WED AUG 23 2017

NOTE: "FAIR" INDICATES FEW OR NO CLOUDS BELOW 12,000 FEET WITH NO
SIGNIFICANT WEATHER AND/OR OBSTRUCTIONS TO VISIBILITY.

NOTE: STATIONS NOT REPORTING VARIABLES SUCH AS SKY/WEATHER OR
PRESSURE ARE PROVIDED BY RAWS AND APRS NETWORKS AND ARE NOT UNDER
NATIONAL WEATHER SERVICE QUALITY CONTROL.

...OBSERVATIONS IN AND NEAR THE EASTERN PANHANDLE OF NEBRASKA...

CITY           SKY/WX    TMP DP  RH WIND       PRES   REMARKS
PINE RIDGE     SUNNY     93  53  25 VRB6      29.94F HX  90
GORDON         FAIR      90  49  24 CALM      29.96F
CHADRON        SUNNY     90  47  22 SE7       29.93F
ALLIANCE       SUNNY     87  55  33 S10       29.99F
SIDNEY         CLOUDY    88  55  32 S10       30.03F
CRESCENT LAKE    N/A     86  62  44 SE6G13      N/A
$$

...OBSERVATIONS IN NORTHERN NEBRASKA AND FAR SOUTHERN SOUTH DAKOTA...

CITY           SKY/WX    TMP DP  RH WIND       PRES   REMARKS
WINNER         FAIR      88  63  43 S13       29.90F
VALENTINE      SUNNY     91  57  31 SW16      29.93F
THEDFORD       SUNNY     85  59  41 S16G25    29.99F
AINSWORTH      SUNNY     83  61  46 S14       29.97S
O`NEILL        SUNNY     80  59  48 S14G20    29.99S
ORD            SUNNY     79  52  38 S16       30.00F
BROKEN BOW     SUNNY     82  53  36 S18       30.01F
VALENTINE NWR    N/A     86  60  41 S13G22      N/A
HALSEY           N/A     84  56  37 S13G25      N/A
BUTTE            N/A     81  60  49 S12G20      N/A
CHAMBERS         N/A     78  55  44 SW3G12      N/A
EWING            N/A     79  61  53 S8G15       N/A
$$

...OBSERVATIONS IN SOUTHWEST NEBRASKA AND FAR NORTHEAST COLORADO...

CITY           SKY/WX    TMP DP  RH WIND       PRES   REMARKS
WRAY           FAIR      90  55  31 S14       30.01F
HOLYOKE        FAIR      86  63  45 S13       30.01F
IMPERIAL       SUNNY     87  58  37 S13       30.00F
OGALLALA       SUNNY     87  60  40 S12G17    29.99F
NORTH PLATTE   SUNNY     83  59  44 S16       29.99F
MCCOOK         SUNNY     85  54  34 S16       30.01F
LEXINGTON      SUNNY     81  51  35 S12       30.03F
STAPLETON        N/A     84  60  44 CALM        N/A
GOTHENBURG       N/A     82  49  31 S12         N/A
CALLAWAY         N/A     82  59  45 S14         N/A
$$

...OBSERVATIONS IN CENTRAL LINCOLN COUNTY AREA...

CITY           SKY/WX    TMP DP  RH WIND       PRES   REMARKS
N.P. AIRPORT   SUNNY     83  59  44 S16       29.99F
N.P. DOWNTOWN    N/A     84  61  45 SW3G12      N/A
N.P. SOUTHEAST   N/A     82  60  46 S10         N/A
N.P. HILLCREST   N/A     82  60  46 S16G26      N/A
$$

...SOME OBSERVATIONS FROM AROUND THE REGION...

CITY           SKY/WX    TMP DP  RH WIND       PRES   REMARKS
DENVER         CLOUDY    84  43  23 NW26G33   30.10F
LIMON          SUNNY     80  52  37 S14       30.12F
ASPEN          CLOUDY    74  39  28 VRB3      30.30F
LARAMIE        LGT RAIN  65  46  50 CALM      30.29S
CASPER         SUNNY     89  26  10 W12G18    30.06F
CHEYENNE       CLOUDY    75  41  29 N7        30.18S
SCOTTSBLUFF    SUNNY     90  56  31 E10       29.99F
GRAND ISLAND   SUNNY     79  57  46 S10       30.04F
OMAHA          SUNNY     79  55  43 S13       30.05F
SIOUX FALLS    LGT RAIN  76  60  57 S12       30.00F
PIERRE         SUNNY     85  61  44 E10       29.88F
RAPID CITY     SUNNY     89  47  23 N6        29.95F
BISMARCK       SUNNY     84  54  35 S8        29.95F
KANSAS CITY    SUNNY     77  56  48 VRB7      30.07F
HILL CITY      SUNNY     87  44  22 SE15      30.02F
WICHITA        SUNNY     83  51  33 E10       30.03F
DODGE CITY     SUNNY     85  48  27 SE12      30.06F
OKLAHOMA CITY  MOSUNNY   84  64  50 NE9       30.00F
DALLAS         PTSUNNY   89  70  53 NE8       29.90F HX  94
AMARILLO       MOSUNNY   79  63  57 E10       30.10F
$$




USA.gov is the U.S. government's official web portal to all federal, state and local government web resources and services.